Year,Month,Day,Hour,Minute,Value (Times are PST for temperature in C)
2014,06,26,00,00,13.80
2014,06,26,00,01,13.80
2014,06,26,00,02,13.80
2014,06,26,00,03,13.80
2014,06,26,00,04,13.80
2014,06,26,00,05,13.80
2014,06,26,00,06,13.80
2014,06,26,00,07,13.80
2014,06,26,00,08,13.80
2014,06,26,00,09,13.80
2014,06,26,00,10,13.80
2014,06,26,00,11,13.80
2014,06,26,00,12,13.80
2014,06,26,00,13,13.80
2014,06,26,00,14,13.80
2014,06,26,00,15,13.80
2014,06,26,00,16,13.70
2014,06,26,00,17,13.70
2014,06,26,00,18,13.70
2014,06,26,00,19,13.70
2014,06,26,00,20,13.70
2014,06,26,00,21,13.60
2014,06,26,00,22,13.60
2014,06,26,00,23,13.60
2014,06,26,00,24,13.60
2014,06,26,00,25,13.50
2014,06,26,00,26,13.50
2014,06,26,00,27,13.40
2014,06,26,00,28,13.40
2014,06,26,00,29,13.30
2014,06,26,00,30,13.30
2014,06,26,00,31,13.30
2014,06,26,00,32,13.30
2014,06,26,00,33,13.30
2014,06,26,00,34,13.30
2014,06,26,00,35,13.20
2014,06,26,00,36,13.20
2014,06,26,00,37,13.20
2014,06,26,00,38,13.20
2014,06,26,00,39,13.20
2014,06,26,00,40,13.20
2014,06,26,00,41,13.20
2014,06,26,00,42,13.20
2014,06,26,00,43,13.20
2014,06,26,00,44,13.20
2014,06,26,00,45,13.20
2014,06,26,00,46,13.20
2014,06,26,00,47,13.10
2014,06,26,00,48,13.10
2014,06,26,00,49,13.10
2014,06,26,00,50,13.10
2014,06,26,00,51,13.10
2014,06,26,00,52,13.10
2014,06,26,00,53,13.10
2014,06,26,00,54,13.10
2014,06,26,00,55,13.10
2014,06,26,00,56,13.10
2014,06,26,00,57,13.10
2014,06,26,00,58,13.10
2014,06,26,00,59,13.10
2014,06,26,01,00,13.10
2014,06,26,01,01,13.10
2014,06,26,01,02,13.10
2014,06,26,01,03,13.10
2014,06,26,01,04,13.10
2014,06,26,01,05,13.10
2014,06,26,01,06,13.00
2014,06,26,01,07,13.00
2014,06,26,01,08,13.00
2014,06,26,01,09,13.00
2014,06,26,01,10,12.90
2014,06,26,01,11,12.90
2014,06,26,01,12,12.90
2014,06,26,01,13,12.90
2014,06,26,01,14,12.80
2014,06,26,01,15,12.80
2014,06,26,01,16,12.80
2014,06,26,01,17,12.80
2014,06,26,01,18,12.80
2014,06,26,01,19,12.80
2014,06,26,01,20,12.80
2014,06,26,01,21,12.80
2014,06,26,01,22,12.80
2014,06,26,01,23,12.80
2014,06,26,01,24,12.80
2014,06,26,01,25,12.80
2014,06,26,01,26,12.70
2014,06,26,01,27,12.70
2014,06,26,01,28,12.70
2014,06,26,01,29,12.70
2014,06,26,01,30,12.60
2014,06,26,01,31,12.60
2014,06,26,01,32,12.60
2014,06,26,01,33,12.60
2014,06,26,01,34,12.60
2014,06,26,01,35,12.60
2014,06,26,01,36,12.60
2014,06,26,01,37,12.60
2014,06,26,01,38,12.60
2014,06,26,01,39,12.60
2014,06,26,01,40,12.60
2014,06,26,01,41,12.60
2014,06,26,01,42,12.60
2014,06,26,01,43,12.60
2014,06,26,01,44,12.60
2014,06,26,01,45,12.50
2014,06,26,01,46,12.50
2014,06,26,01,47,12.50
2014,06,26,01,48,12.50
2014,06,26,01,49,12.50
2014,06,26,01,50,12.50
2014,06,26,01,51,12.60
2014,06,26,01,52,12.60
2014,06,26,01,53,12.60
2014,06,26,01,54,12.60
2014,06,26,01,55,12.60
2014,06,26,01,56,12.60
2014,06,26,01,57,12.60
2014,06,26,01,58,12.60
2014,06,26,01,59,12.60
2014,06,26,02,00,12.60
2014,06,26,02,01,12.60
2014,06,26,02,02,12.70
2014,06,26,02,03,12.70
2014,06,26,02,04,12.70
2014,06,26,02,05,12.70
2014,06,26,02,06,12.80
2014,06,26,02,07,12.80
2014,06,26,02,08,12.80
2014,06,26,02,09,12.80
2014,06,26,02,10,12.80
2014,06,26,02,11,12.80
2014,06,26,02,12,12.80
2014,06,26,02,13,12.80
2014,06,26,02,14,12.80
2014,06,26,02,15,12.80
2014,06,26,02,16,12.80
2014,06,26,02,17,12.80
2014,06,26,02,18,12.80
2014,06,26,02,19,12.80
2014,06,26,02,20,12.80
2014,06,26,02,21,12.80
2014,06,26,02,22,12.80
2014,06,26,02,23,12.80
2014,06,26,02,24,12.80
2014,06,26,02,25,12.80
2014,06,26,02,26,12.80
2014,06,26,02,27,12.80
2014,06,26,02,28,12.80
2014,06,26,02,29,12.80
2014,06,26,02,30,12.80
2014,06,26,02,31,12.80
2014,06,26,02,32,12.80
2014,06,26,02,33,12.80
2014,06,26,02,34,12.80
2014,06,26,02,35,12.80
2014,06,26,02,36,12.80
2014,06,26,02,37,12.80
2014,06,26,02,38,12.80
2014,06,26,02,39,12.80
2014,06,26,02,40,12.80
2014,06,26,02,41,12.80
2014,06,26,02,42,12.80
2014,06,26,02,43,12.80
2014,06,26,02,44,12.80
2014,06,26,02,45,12.80
2014,06,26,02,46,12.80
2014,06,26,02,47,12.80
2014,06,26,02,48,12.80
2014,06,26,02,49,12.80
2014,06,26,02,50,12.80
2014,06,26,02,51,12.80
2014,06,26,02,52,12.80
2014,06,26,02,53,12.80
2014,06,26,02,54,12.80
2014,06,26,02,55,12.80
2014,06,26,02,56,12.80
2014,06,26,02,57,12.80
2014,06,26,02,58,12.80
2014,06,26,02,59,12.80
2014,06,26,03,00,12.80
2014,06,26,03,01,12.80
2014,06,26,03,02,12.80
2014,06,26,03,03,12.80
2014,06,26,03,04,12.80
2014,06,26,03,05,12.80
2014,06,26,03,06,12.80
2014,06,26,03,07,12.80
2014,06,26,03,08,12.80
2014,06,26,03,09,12.80
2014,06,26,03,10,12.80
2014,06,26,03,11,12.80
2014,06,26,03,12,12.80
2014,06,26,03,13,12.80
2014,06,26,03,14,12.80
2014,06,26,03,15,12.80
2014,06,26,03,16,12.80
2014,06,26,03,17,12.80
2014,06,26,03,18,12.80
2014,06,26,03,19,12.80
2014,06,26,03,20,12.80
2014,06,26,03,21,12.80
2014,06,26,03,22,12.80
2014,06,26,03,23,12.80
2014,06,26,03,24,12.80
2014,06,26,03,25,12.90
2014,06,26,03,26,12.90
2014,06,26,03,27,12.90
2014,06,26,03,28,13.00
2014,06,26,03,29,13.00
2014,06,26,03,30,13.00
2014,06,26,03,31,13.00
2014,06,26,03,32,13.00
2014,06,26,03,33,13.00
2014,06,26,03,34,13.00
2014,06,26,03,35,13.00
2014,06,26,03,36,13.00
2014,06,26,03,37,13.00
2014,06,26,03,38,13.00
2014,06,26,03,39,13.00
2014,06,26,03,40,13.00
2014,06,26,03,41,13.00
2014,06,26,03,42,12.90
2014,06,26,03,43,12.90
2014,06,26,03,44,12.90
2014,06,26,03,45,12.90
2014,06,26,03,46,12.90
2014,06,26,03,47,12.90
2014,06,26,03,48,12.90
2014,06,26,03,49,12.80
2014,06,26,03,50,12.80
2014,06,26,03,51,12.80
2014,06,26,03,52,12.80
2014,06,26,03,53,12.80
2014,06,26,03,54,12.80
2014,06,26,03,55,12.80
2014,06,26,03,56,12.80
2014,06,26,03,57,12.80
2014,06,26,03,58,12.80
2014,06,26,03,59,12.80
2014,06,26,04,00,12.80
2014,06,26,04,01,12.80
2014,06,26,04,02,12.80
2014,06,26,04,03,12.90
2014,06,26,04,04,12.90
2014,06,26,04,05,12.90
2014,06,26,04,06,12.90
2014,06,26,04,07,12.90
2014,06,26,04,08,12.90
2014,06,26,04,09,12.90
2014,06,26,04,10,12.90
2014,06,26,04,11,12.90
2014,06,26,04,12,12.90
2014,06,26,04,13,13.00
2014,06,26,04,14,13.00
2014,06,26,04,15,13.00
2014,06,26,04,16,13.00
2014,06,26,04,17,13.00
2014,06,26,04,18,13.10
2014,06,26,04,19,13.10
2014,06,26,04,20,13.10
2014,06,26,04,21,13.20
2014,06,26,04,22,13.20
2014,06,26,04,23,13.30
2014,06,26,04,24,13.30
2014,06,26,04,25,13.30
2014,06,26,04,26,13.30
2014,06,26,04,27,13.30
2014,06,26,04,28,13.30
2014,06,26,04,29,13.30
2014,06,26,04,30,13.30
2014,06,26,04,31,13.30
2014,06,26,04,32,13.30
2014,06,26,04,33,13.30
2014,06,26,04,34,13.20
2014,06,26,04,35,13.20
2014,06,26,04,36,13.20
2014,06,26,04,37,13.20
2014,06,26,04,38,13.20
2014,06,26,04,39,13.10
2014,06,26,04,40,13.10
2014,06,26,04,41,13.10
2014,06,26,04,42,13.10
2014,06,26,04,43,13.00
2014,06,26,04,44,13.00
2014,06,26,04,45,12.90
2014,06,26,04,46,12.90
2014,06,26,04,47,12.90
2014,06,26,04,48,12.80
2014,06,26,04,49,12.80
2014,06,26,04,50,12.80
2014,06,26,04,51,12.80
2014,06,26,04,52,12.70
2014,06,26,04,53,12.70
2014,06,26,04,54,12.70
2014,06,26,04,55,12.60
2014,06,26,04,56,12.60
2014,06,26,04,57,12.60
2014,06,26,04,58,12.50
2014,06,26,04,59,12.50
2014,06,26,05,00,12.50
2014,06,26,05,01,12.40
2014,06,26,05,02,12.40
2014,06,26,05,03,12.30
2014,06,26,05,04,12.30
2014,06,26,05,05,12.30
2014,06,26,05,06,12.20
2014,06,26,05,07,12.10
2014,06,26,05,08,12.10
2014,06,26,05,09,12.00
2014,06,26,05,10,12.00
2014,06,26,05,11,12.00
2014,06,26,05,12,11.90
2014,06,26,05,13,11.90
2014,06,26,05,14,11.80
2014,06,26,05,15,11.80
2014,06,26,05,16,11.80
2014,06,26,05,17,11.80
2014,06,26,05,18,11.80
2014,06,26,05,19,11.70
2014,06,26,05,20,11.70
2014,06,26,05,21,11.70
2014,06,26,05,22,11.60
2014,06,26,05,23,11.60
2014,06,26,05,24,11.60
2014,06,26,05,25,11.60
2014,06,26,05,26,11.60
2014,06,26,05,27,11.60
2014,06,26,05,28,11.60
2014,06,26,05,29,11.60
2014,06,26,05,30,11.60
2014,06,26,05,31,11.60
2014,06,26,05,32,11.60
2014,06,26,05,33,11.50
2014,06,26,05,34,11.40
2014,06,26,05,35,11.40
2014,06,26,05,36,11.40
2014,06,26,05,37,11.40
2014,06,26,05,38,11.40
2014,06,26,05,39,11.40
2014,06,26,05,40,11.40
2014,06,26,05,41,11.40
2014,06,26,05,42,11.40
2014,06,26,05,43,11.40
2014,06,26,05,44,11.40
2014,06,26,05,45,11.40
2014,06,26,05,46,11.40
2014,06,26,05,47,11.40
2014,06,26,05,48,11.40
2014,06,26,05,49,11.60
2014,06,26,05,50,11.60
2014,06,26,05,51,11.60
2014,06,26,05,52,11.60
2014,06,26,05,53,11.60
2014,06,26,05,54,11.60
2014,06,26,05,55,11.60
2014,06,26,05,56,11.60
2014,06,26,05,57,11.60
2014,06,26,05,58,11.60
2014,06,26,05,59,11.60
2014,06,26,06,00,11.60
2014,06,26,06,01,11.60
2014,06,26,06,02,11.60
2014,06,26,06,03,11.70
2014,06,26,06,04,11.70
2014,06,26,06,05,11.70
2014,06,26,06,06,11.70
2014,06,26,06,07,11.80
2014,06,26,06,08,11.80
2014,06,26,06,09,11.80
2014,06,26,06,10,11.80
2014,06,26,06,11,11.90
2014,06,26,06,12,11.90
2014,06,26,06,13,12.00
2014,06,26,06,14,12.00
2014,06,26,06,15,12.10
2014,06,26,06,16,12.10
2014,06,26,06,17,12.20
2014,06,26,06,18,12.20
2014,06,26,06,19,12.30
2014,06,26,06,20,12.30
2014,06,26,06,21,12.30
2014,06,26,06,22,12.30
2014,06,26,06,23,12.40
2014,06,26,06,24,12.50
2014,06,26,06,25,12.50
2014,06,26,06,26,12.50
2014,06,26,06,27,12.60
2014,06,26,06,28,12.60
2014,06,26,06,29,12.60
2014,06,26,06,30,12.70
2014,06,26,06,31,12.70
2014,06,26,06,32,12.70
2014,06,26,06,33,12.80
2014,06,26,06,34,12.80
2014,06,26,06,35,12.80
2014,06,26,06,36,12.90
2014,06,26,06,37,12.90
2014,06,26,06,38,12.90
2014,06,26,06,39,13.00
2014,06,26,06,40,13.00
2014,06,26,06,41,13.10
2014,06,26,06,42,13.10
2014,06,26,06,43,13.20
2014,06,26,06,44,13.30
2014,06,26,06,45,13.30
2014,06,26,06,46,13.30
2014,06,26,06,47,13.40
2014,06,26,06,48,13.50
2014,06,26,06,49,13.60
2014,06,26,06,50,13.70
2014,06,26,06,51,13.70
2014,06,26,06,52,13.80
2014,06,26,06,53,13.80
2014,06,26,06,54,13.80
2014,06,26,06,55,13.80
2014,06,26,06,56,13.80
2014,06,26,06,57,13.80
2014,06,26,06,58,13.80
2014,06,26,06,59,13.80
2014,06,26,07,00,13.80
2014,06,26,07,01,13.90
2014,06,26,07,02,13.90
2014,06,26,07,03,13.90
2014,06,26,07,04,13.90
2014,06,26,07,05,13.90
2014,06,26,07,06,14.00
2014,06,26,07,07,14.00
2014,06,26,07,08,14.00
2014,06,26,07,09,14.00
2014,06,26,07,10,14.00
2014,06,26,07,11,13.90
2014,06,26,07,12,13.90
2014,06,26,07,13,13.90
2014,06,26,07,14,13.80
2014,06,26,07,15,13.80
2014,06,26,07,16,13.80
2014,06,26,07,17,13.80
2014,06,26,07,18,13.80
2014,06,26,07,19,13.90
2014,06,26,07,20,13.90
2014,06,26,07,21,13.90
2014,06,26,07,22,14.00
2014,06,26,07,23,14.00
2014,06,26,07,24,14.10
2014,06,26,07,25,14.20
2014,06,26,07,26,14.20
2014,06,26,07,27,14.20
2014,06,26,07,28,14.30
2014,06,26,07,29,14.40
2014,06,26,07,30,14.40
2014,06,26,07,31,14.40
2014,06,26,07,32,14.50
2014,06,26,07,33,14.50
2014,06,26,07,34,14.50
2014,06,26,07,35,14.60
2014,06,26,07,36,14.70
2014,06,26,07,37,14.70
2014,06,26,07,38,14.80
2014,06,26,07,39,14.80
2014,06,26,07,40,14.80
2014,06,26,07,41,14.80
2014,06,26,07,42,14.80
2014,06,26,07,43,14.80
2014,06,26,07,44,14.80
2014,06,26,07,45,14.80
2014,06,26,07,46,14.80
2014,06,26,07,47,14.80
2014,06,26,07,48,14.80
2014,06,26,07,49,14.80
2014,06,26,07,50,14.70
2014,06,26,07,51,14.80
2014,06,26,07,52,14.70
2014,06,26,07,53,14.70
2014,06,26,07,54,14.70
2014,06,26,07,55,14.70
2014,06,26,07,56,14.80
2014,06,26,07,57,14.80
2014,06,26,07,58,14.80
2014,06,26,07,59,14.80
2014,06,26,08,00,14.80
2014,06,26,08,01,15.00
2014,06,26,08,02,15.00
2014,06,26,08,03,15.10
2014,06,26,08,04,15.20
2014,06,26,08,05,15.20
2014,06,26,08,06,15.20
2014,06,26,08,07,15.20
2014,06,26,08,08,15.20
2014,06,26,08,09,15.20
2014,06,26,08,10,15.30
2014,06,26,08,11,15.20
2014,06,26,08,12,15.30
2014,06,26,08,13,15.30
2014,06,26,08,14,15.20
2014,06,26,08,15,15.20
2014,06,26,08,16,15.30
2014,06,26,08,17,15.30
2014,06,26,08,18,15.30
2014,06,26,08,19,15.40
2014,06,26,08,20,15.50
2014,06,26,08,21,15.50
2014,06,26,08,22,15.50
2014,06,26,08,23,15.40
2014,06,26,08,24,15.40
2014,06,26,08,25,15.40
2014,06,26,08,26,15.40
2014,06,26,08,27,15.40
2014,06,26,08,28,15.40
2014,06,26,08,29,15.40
2014,06,26,08,30,15.40
2014,06,26,08,31,15.40
2014,06,26,08,32,15.30
2014,06,26,08,33,15.30
2014,06,26,08,34,15.30
2014,06,26,08,35,15.30
2014,06,26,08,36,15.50
2014,06,26,08,37,15.50
2014,06,26,08,38,15.60
2014,06,26,08,39,15.70
2014,06,26,08,40,15.80
2014,06,26,08,41,15.90
2014,06,26,08,42,16.10
2014,06,26,08,43,16.10
2014,06,26,08,44,16.20
2014,06,26,08,45,16.30
2014,06,26,08,46,16.30
2014,06,26,08,47,16.40
2014,06,26,08,48,16.40
2014,06,26,08,49,16.40
2014,06,26,08,50,16.40
2014,06,26,08,51,16.40
2014,06,26,08,52,16.40
2014,06,26,08,53,16.40
2014,06,26,08,54,16.40
2014,06,26,08,55,16.60
2014,06,26,08,56,16.70
2014,06,26,08,57,16.70
2014,06,26,08,58,16.80
2014,06,26,08,59,16.90
2014,06,26,09,00,17.00
2014,06,26,09,01,17.00
2014,06,26,09,02,17.00
2014,06,26,09,03,17.00
2014,06,26,09,04,17.00
2014,06,26,09,05,16.90
2014,06,26,09,06,16.90
2014,06,26,09,07,16.70
2014,06,26,09,08,16.70
2014,06,26,09,09,16.80
2014,06,26,09,10,16.80
2014,06,26,09,11,16.80
2014,06,26,09,12,16.80
2014,06,26,09,13,16.80
2014,06,26,09,14,16.80
2014,06,26,09,15,16.70
2014,06,26,09,16,16.70
2014,06,26,09,17,16.70
2014,06,26,09,18,16.70
2014,06,26,09,19,16.70
2014,06,26,09,20,16.80
2014,06,26,09,21,16.90
2014,06,26,09,22,16.90
2014,06,26,09,23,16.80
2014,06,26,09,24,16.80
2014,06,26,09,25,16.70
2014,06,26,09,26,16.70
2014,06,26,09,27,16.60
2014,06,26,09,28,16.70
2014,06,26,09,29,16.70
2014,06,26,09,30,16.80
2014,06,26,09,31,16.80
2014,06,26,09,32,16.80
2014,06,26,09,33,16.90
2014,06,26,09,34,17.00
2014,06,26,09,35,17.10
2014,06,26,09,36,17.10
2014,06,26,09,37,17.10
2014,06,26,09,38,17.20
2014,06,26,09,39,17.10
2014,06,26,09,40,17.00
2014,06,26,09,41,16.90
2014,06,26,09,42,16.90
2014,06,26,09,43,17.00
2014,06,26,09,44,17.00
2014,06,26,09,45,17.10
2014,06,26,09,46,17.20
2014,06,26,09,47,17.20
2014,06,26,09,48,17.30
2014,06,26,09,49,17.50
2014,06,26,09,50,17.50
2014,06,26,09,51,17.70
2014,06,26,09,52,17.70
2014,06,26,09,53,17.70
2014,06,26,09,54,17.70
2014,06,26,09,55,17.80
2014,06,26,09,56,17.80
2014,06,26,09,57,17.90
2014,06,26,09,58,18.00
2014,06,26,09,59,18.10
2014,06,26,10,00,18.10
2014,06,26,10,01,18.00
2014,06,26,10,02,17.90
2014,06,26,10,03,17.80
2014,06,26,10,04,17.70
2014,06,26,10,05,17.70
2014,06,26,10,06,17.70
2014,06,26,10,07,17.70
2014,06,26,10,08,17.80
2014,06,26,10,09,17.80
2014,06,26,10,10,17.90
2014,06,26,10,11,17.90
2014,06,26,10,12,18.00
2014,06,26,10,13,18.10
2014,06,26,10,14,18.30
2014,06,26,10,15,18.30
2014,06,26,10,16,18.40
2014,06,26,10,17,18.40
2014,06,26,10,18,18.40
2014,06,26,10,19,18.40
2014,06,26,10,20,18.30
2014,06,26,10,21,18.20
2014,06,26,10,22,18.00
2014,06,26,10,23,17.90
2014,06,26,10,24,17.70
2014,06,26,10,25,17.70
2014,06,26,10,26,17.70
2014,06,26,10,27,17.80
2014,06,26,10,28,17.80
2014,06,26,10,29,17.90
2014,06,26,10,30,17.90
2014,06,26,10,31,17.90
2014,06,26,10,32,17.90
2014,06,26,10,33,18.00
2014,06,26,10,34,18.10
2014,06,26,10,35,18.00
2014,06,26,10,36,18.00
2014,06,26,10,37,18.10
2014,06,26,10,38,18.20
2014,06,26,10,39,18.20
2014,06,26,10,40,18.30
2014,06,26,10,41,18.40
2014,06,26,10,42,18.40
2014,06,26,10,43,18.20
2014,06,26,10,44,18.20
2014,06,26,10,45,18.20
2014,06,26,10,46,18.20
2014,06,26,10,47,18.30
2014,06,26,10,48,18.40
2014,06,26,10,49,18.50
2014,06,26,10,50,18.50
2014,06,26,10,51,18.50
2014,06,26,10,52,18.60
2014,06,26,10,53,18.50
2014,06,26,10,54,18.40
2014,06,26,10,55,18.40
2014,06,26,10,56,18.30
2014,06,26,10,57,18.20
2014,06,26,10,58,18.20
2014,06,26,10,59,18.20
2014,06,26,11,00,18.20
2014,06,26,11,01,18.20
2014,06,26,11,02,18.20
2014,06,26,11,03,18.30
2014,06,26,11,04,18.30
2014,06,26,11,05,18.30
2014,06,26,11,06,18.30
2014,06,26,11,07,18.40
2014,06,26,11,08,18.40
2014,06,26,11,09,18.40
2014,06,26,11,10,18.50
2014,06,26,11,11,18.50
2014,06,26,11,12,18.40
2014,06,26,11,13,18.30
2014,06,26,11,14,18.20
2014,06,26,11,15,18.10
2014,06,26,11,16,18.10
2014,06,26,11,17,18.10
2014,06,26,11,18,18.20
2014,06,26,11,19,18.20
2014,06,26,11,20,18.20
2014,06,26,11,21,18.20
2014,06,26,11,22,18.30
2014,06,26,11,23,18.30
2014,06,26,11,24,18.30
2014,06,26,11,25,18.20
2014,06,26,11,26,18.30
2014,06,26,11,27,18.30
2014,06,26,11,28,18.20
2014,06,26,11,29,18.30
2014,06,26,11,30,18.30
2014,06,26,11,31,18.30
2014,06,26,11,32,18.20
2014,06,26,11,33,18.20
2014,06,26,11,34,18.20
2014,06,26,11,35,18.20
2014,06,26,11,36,18.20
2014,06,26,11,37,18.20
2014,06,26,11,38,18.30
2014,06,26,11,39,18.40
2014,06,26,11,40,18.50
2014,06,26,11,41,18.50
2014,06,26,11,42,18.40
2014,06,26,11,43,18.20
2014,06,26,11,44,18.00
2014,06,26,11,45,17.90
2014,06,26,11,46,17.90
2014,06,26,11,47,17.90
2014,06,26,11,48,18.00
2014,06,26,11,49,18.10
2014,06,26,11,50,18.10
2014,06,26,11,51,18.00
2014,06,26,11,52,17.90
2014,06,26,11,53,18.00
2014,06,26,11,54,18.20
2014,06,26,11,55,18.30
2014,06,26,11,56,18.40
2014,06,26,11,57,18.50
2014,06,26,11,58,18.60
2014,06,26,11,59,18.60
2014,06,26,12,00,18.70
2014,06,26,12,01,18.90
2014,06,26,12,02,18.70
2014,06,26,12,03,18.40
2014,06,26,12,04,18.20
2014,06,26,12,05,17.90
2014,06,26,12,06,17.70
2014,06,26,12,07,17.40
2014,06,26,12,08,17.10
2014,06,26,12,09,16.90
2014,06,26,12,10,16.80
2014,06,26,12,11,16.60
2014,06,26,12,12,16.40
2014,06,26,12,13,16.10
2014,06,26,12,14,15.90
2014,06,26,12,15,15.80
2014,06,26,12,16,15.80
2014,06,26,12,17,16.00
2014,06,26,12,18,16.10
2014,06,26,12,19,16.10
2014,06,26,12,20,16.20
2014,06,26,12,21,16.40
2014,06,26,12,22,16.50
2014,06,26,12,23,16.60
2014,06,26,12,24,16.60
2014,06,26,12,25,16.70
2014,06,26,12,26,16.60
2014,06,26,12,27,16.50
2014,06,26,12,28,16.20
2014,06,26,12,29,16.10
2014,06,26,12,30,16.10
2014,06,26,12,31,16.00
2014,06,26,12,32,16.10
2014,06,26,12,33,16.20
2014,06,26,12,34,16.30
2014,06,26,12,35,16.40
2014,06,26,12,36,16.40
2014,06,26,12,37,16.50
2014,06,26,12,38,16.60
2014,06,26,12,39,16.70
2014,06,26,12,40,16.70
2014,06,26,12,41,16.70
2014,06,26,12,42,16.70
2014,06,26,12,43,16.70
2014,06,26,12,44,16.70
2014,06,26,12,45,16.70
2014,06,26,12,46,16.70
2014,06,26,12,47,16.90
2014,06,26,12,48,17.00
2014,06,26,12,49,17.20
2014,06,26,12,50,17.30
2014,06,26,12,51,17.30
2014,06,26,12,52,17.30
2014,06,26,12,53,17.30
2014,06,26,12,54,17.30
2014,06,26,12,55,17.40
2014,06,26,12,56,17.50
2014,06,26,12,57,17.70
2014,06,26,12,58,17.90
2014,06,26,12,59,18.10
2014,06,26,13,00,18.20
2014,06,26,13,01,18.20
2014,06,26,13,02,18.20
2014,06,26,13,03,18.20
2014,06,26,13,04,18.20
2014,06,26,13,05,18.20
2014,06,26,13,06,18.10
2014,06,26,13,07,18.10
2014,06,26,13,08,18.10
2014,06,26,13,09,18.20
2014,06,26,13,10,18.30
2014,06,26,13,11,18.40
2014,06,26,13,12,18.30
2014,06,26,13,13,18.30
2014,06,26,13,14,18.30
2014,06,26,13,15,18.30
2014,06,26,13,16,18.40
2014,06,26,13,17,18.40
2014,06,26,13,18,18.50
2014,06,26,13,19,18.50
2014,06,26,13,20,18.50
2014,06,26,13,21,18.60
2014,06,26,13,22,18.60
2014,06,26,13,23,18.70
2014,06,26,13,24,18.80
2014,06,26,13,25,18.90
2014,06,26,13,26,19.00
2014,06,26,13,27,19.10
2014,06,26,13,28,19.10
2014,06,26,13,29,19.30
2014,06,26,13,30,19.40
2014,06,26,13,31,19.30
2014,06,26,13,32,19.30
2014,06,26,13,33,19.40
2014,06,26,13,34,19.60
2014,06,26,13,35,19.80
2014,06,26,13,36,19.90
2014,06,26,13,37,20.00
2014,06,26,13,38,20.10
2014,06,26,13,39,20.30
2014,06,26,13,40,20.40
2014,06,26,13,41,20.60
2014,06,26,13,42,20.70
2014,06,26,13,43,20.80
2014,06,26,13,44,20.90
2014,06,26,13,45,20.80
2014,06,26,13,46,20.70
2014,06,26,13,47,20.60
2014,06,26,13,48,20.60
2014,06,26,13,49,20.70
2014,06,26,13,50,20.70
2014,06,26,13,51,20.70
2014,06,26,13,52,20.80
2014,06,26,13,53,20.80
2014,06,26,13,54,20.70
2014,06,26,13,55,20.60
2014,06,26,13,56,20.60
2014,06,26,13,57,20.60
2014,06,26,13,58,20.50
2014,06,26,13,59,20.50
2014,06,26,14,00,20.60
2014,06,26,14,01,20.60
2014,06,26,14,02,20.60
2014,06,26,14,03,20.60
2014,06,26,14,04,20.60
2014,06,26,14,05,20.70
2014,06,26,14,06,20.70
2014,06,26,14,07,20.60
2014,06,26,14,08,20.50
2014,06,26,14,09,20.60
2014,06,26,14,10,20.70
2014,06,26,14,11,20.80
2014,06,26,14,12,20.90
2014,06,26,14,13,21.00
2014,06,26,14,14,21.00
2014,06,26,14,15,21.10
2014,06,26,14,16,21.30
2014,06,26,14,17,21.30
2014,06,26,14,18,21.30
2014,06,26,14,19,21.30
2014,06,26,14,20,21.30
2014,06,26,14,21,21.30
2014,06,26,14,22,21.50
2014,06,26,14,23,21.60
2014,06,26,14,24,21.60
2014,06,26,14,25,21.60
2014,06,26,14,26,21.50
2014,06,26,14,27,21.30
2014,06,26,14,28,21.30
2014,06,26,14,29,21.30
2014,06,26,14,30,21.40
2014,06,26,14,31,21.50
2014,06,26,14,32,21.60
2014,06,26,14,33,21.60
2014,06,26,14,34,21.60
2014,06,26,14,35,21.70
2014,06,26,14,36,21.80
2014,06,26,14,37,21.90
2014,06,26,14,38,22.00
2014,06,26,14,39,22.00
2014,06,26,14,40,22.00
2014,06,26,14,41,22.00
2014,06,26,14,42,22.00
2014,06,26,14,43,21.80
2014,06,26,14,44,21.80
2014,06,26,14,45,21.90
2014,06,26,14,46,21.80
2014,06,26,14,47,21.80
2014,06,26,14,48,21.70
2014,06,26,14,49,21.70
2014,06,26,14,50,21.60
2014,06,26,14,51,21.50
2014,06,26,14,52,21.40
2014,06,26,14,53,21.30
2014,06,26,14,54,21.30
2014,06,26,14,55,21.30
2014,06,26,14,56,21.20
2014,06,26,14,57,21.10
2014,06,26,14,58,21.00
2014,06,26,14,59,20.90
2014,06,26,15,00,20.80
2014,06,26,15,01,20.70
2014,06,26,15,02,20.50
2014,06,26,15,03,20.50
2014,06,26,15,04,20.40
2014,06,26,15,05,20.50
2014,06,26,15,06,20.40
2014,06,26,15,07,20.30
2014,06,26,15,08,20.30
2014,06,26,15,09,20.30
2014,06,26,15,10,20.30
2014,06,26,15,11,20.20
2014,06,26,15,12,20.20
2014,06,26,15,13,20.20
2014,06,26,15,14,20.20
2014,06,26,15,15,20.20
2014,06,26,15,16,20.20
2014,06,26,15,17,20.20
2014,06,26,15,18,20.30
2014,06,26,15,19,20.40
2014,06,26,15,20,20.50
2014,06,26,15,21,20.60
2014,06,26,15,22,20.70
2014,06,26,15,23,20.70
2014,06,26,15,24,20.70
2014,06,26,15,25,20.80
2014,06,26,15,26,20.90
2014,06,26,15,27,21.00
2014,06,26,15,28,21.00
2014,06,26,15,29,21.10
2014,06,26,15,30,21.10
2014,06,26,15,31,21.20
2014,06,26,15,32,21.10
2014,06,26,15,33,21.10
2014,06,26,15,34,21.00
2014,06,26,15,35,21.00
2014,06,26,15,36,21.00
2014,06,26,15,37,21.00
2014,06,26,15,38,21.10
2014,06,26,15,39,21.30
2014,06,26,15,40,21.30
2014,06,26,15,41,21.30
2014,06,26,15,42,21.30
2014,06,26,15,43,21.40
2014,06,26,15,44,21.40
2014,06,26,15,45,21.30
2014,06,26,15,46,21.30
2014,06,26,15,47,21.30
2014,06,26,15,48,21.40
2014,06,26,15,49,21.40
2014,06,26,15,50,21.40
2014,06,26,15,51,21.30
2014,06,26,15,52,21.30
2014,06,26,15,53,21.30
2014,06,26,15,54,21.40
2014,06,26,15,55,21.40
2014,06,26,15,56,21.40
2014,06,26,15,57,21.40
2014,06,26,15,58,21.40
2014,06,26,15,59,21.40
2014,06,26,16,00,21.20
2014,06,26,16,01,21.00
2014,06,26,16,02,21.00
2014,06,26,16,03,20.90
2014,06,26,16,04,20.90
2014,06,26,16,05,21.00
2014,06,26,16,06,21.10
2014,06,26,16,07,21.20
2014,06,26,16,08,21.20
2014,06,26,16,09,21.20
2014,06,26,16,10,21.20
2014,06,26,16,11,21.10
2014,06,26,16,12,21.00
2014,06,26,16,13,20.90
2014,06,26,16,14,20.80
2014,06,26,16,15,20.70
2014,06,26,16,16,20.60
2014,06,26,16,17,20.60
2014,06,26,16,18,20.60
2014,06,26,16,19,20.60
2014,06,26,16,20,20.50
2014,06,26,16,21,20.50
2014,06,26,16,22,20.40
2014,06,26,16,23,20.40
2014,06,26,16,24,20.40
2014,06,26,16,25,20.50
2014,06,26,16,26,20.40
2014,06,26,16,27,20.30
2014,06,26,16,28,20.30
2014,06,26,16,29,20.30
2014,06,26,16,30,20.30
2014,06,26,16,31,20.50
2014,06,26,16,32,20.50
2014,06,26,16,33,20.70
2014,06,26,16,34,20.80
2014,06,26,16,35,20.80
2014,06,26,16,36,20.90
2014,06,26,16,37,20.80
2014,06,26,16,38,20.80
2014,06,26,16,39,20.80
2014,06,26,16,40,20.70
2014,06,26,16,41,20.60
2014,06,26,16,42,20.40
2014,06,26,16,43,20.30
2014,06,26,16,44,20.20
2014,06,26,16,45,20.30
2014,06,26,16,46,20.20
2014,06,26,16,47,20.20
2014,06,26,16,48,20.20
2014,06,26,16,49,20.20
2014,06,26,16,50,20.20
2014,06,26,16,51,20.20
2014,06,26,16,52,20.00
2014,06,26,16,53,19.90
2014,06,26,16,54,19.80
2014,06,26,16,55,19.80
2014,06,26,16,56,19.70
2014,06,26,16,57,19.60
2014,06,26,16,58,19.60
2014,06,26,16,59,19.50
2014,06,26,17,00,19.50
2014,06,26,17,01,19.50
2014,06,26,17,02,19.40
2014,06,26,17,03,19.40
2014,06,26,17,04,19.40
2014,06,26,17,05,19.40
2014,06,26,17,06,19.50
2014,06,26,17,07,19.60
2014,06,26,17,08,19.70
2014,06,26,17,09,19.70
2014,06,26,17,10,19.60
2014,06,26,17,11,19.60
2014,06,26,17,12,19.60
2014,06,26,17,13,19.60
2014,06,26,17,14,19.70
2014,06,26,17,15,19.70
2014,06,26,17,16,19.60
2014,06,26,17,17,19.50
2014,06,26,17,18,19.50
2014,06,26,17,19,19.50